Tracking 17694 objects as of 30-May-2016
HD Live streaming from Space Station
objects crossing your sky now

TEAMSAT

Track TEAMSAT now!
10-day predictions
TEAMSAT is classified as:


NORAD ID: 25025
Int'l Code: 1997-066C
Perigee: 573.2 km
Apogee: 26,597.7 km
Inclination: 7.7 °
Period: 467.6 minutes
Semi major axis: 19956 km
RCS: 0.5073 m2 (medium)
Launch date: October 30, 1997
Source: European Space Agency (ESA)
Launch site: FRENCH GUIANA (FRGUI)
Your satellite tracking list
Your tracking list is empty





NASA's NSSDC Master Catalog

Two Line Element Set (TLE):
1 25025U 97066C   16149.46529887 -.00000092 +00000-0 -41766-3 0  9992
2 25025 007.7254 255.9260 6520323 025.7426 007.8773 03.07948513022058
Source of the keplerian elements: AFSPC

N2YO: 567